User: anonymous
Location: Maiden
(35.5760°N, 81.2120°W)
Time: 13:43:10
(UTC-04:00)
Language:

Cosmos 2151 - Orbit

View from above orbital plane
View from above orbital plane
View from above satellite
View from above satellite

Ground track
Ground track

The orbit data is extracted from the following two-line orbital elements,

1 21422U 91042A   14260.20369254  .00001076  00000-0  10802-3 0    24
2 21422 082.4999 121.1322 0015620 049.6421 310.6159 14.90290278258862
Epoch (UTC): 17 September 2014 04:53:19
Eccentricity: 0.0015620
inclination: 82.4999°
perigee height: 586 km
apogee height: 608 km
right ascension of ascending node: 121.1322°
argument of perigee: 49.6421°
revolutions per day: 14.90290278
mean anomaly at epoch: 310.6159°
orbit number at epoch: 25886

The dashed part of the orbit path shows where the satellite is in the earth's shadow,  

DLR